Погода в Эмбе

Хотите узнать прогноз погоды в Эмбе? Тогда Вам сюда: Погода в Эмбе

Поиск расширенной информации на нашем сайте:

Полезная информация:

Новости сайта



02.01.2020
Опубликован Долгосрочный прогноз погоды по городам России и ближнего зарубежья на январь 2020 года.
Карты: Прогноз на январь и февраль 2020 года, Сравнение прогнозируемой аномалии приземной температуры воздуха на январь 2020 года по разным моделям.




Погода в Эмбе - сегодня

Время (UTC), дата Ветер
(°,м/с) 
Видим.   Явления Облачность Т
(°С)
Тd
(°С)
f(%) Тe
(°С)
Pmin
(гПа)
dP
(гПа)
Po
(мм)
O2
(г/м3)
Тmin Tmax R s Состояние
почвы
09 22.10.21 230 (ЮЗ) 10  20000 м    9/5 600 м средняя, верхняя 
[Sc|Ac lent|Ci]
+9.5 +5.3 75 +7  1019.1  0.2  742  288           
12 22.10.21 230 (ЮЗ) 20000 м    9/0 средняя, верхняя 
[Ac lent|Ci]
+12.3 +5 61 +11  1020.1  1.2  743  285           
15 22.10.21 220 (ЮЗ) н/о    9/0 средняя, верхняя 
[Ac und|Ci]
+9.6 +3.2 64 +8  1021.1  0.8  743  289    +12.4  0.0     
18 22.10.21 200 (Ю) н/о    9/0 средняя, верхняя 
[Ac und|Ci]
+6.6 +1.7 71 +5  1021.8  0.3  743  292    +12.4  0.0     
21 22.10.21 220 (ЮЗ) н/о    9/0 средняя, верхняя 
[Ac und|Ci]
+5.2 +2.2 81 +4  1023  744  294           
00 23.10.21 200 (Ю) н/о    9/9 600 м 
[Sc]
+3.8 +1.5 85 +1  1022.6  -0.6  744  295           
03 23.10.21 220 (ЮЗ) н/о    10/10 600 м 
[Sc]
+8.7 +6.8 88 +8  1022.5  0.5  744  289           
06 23.10.21 240 (ЮЗ) 20000 м    10/10 600 м 
[Sc]
+10.2 +7.5 83 +8  1023.7  1.4  745  288  +2.7         
09 23.10.21 240 (ЮЗ) 20000 м    9/4 600 м средняя, верхняя 
[Cu med, cong|Ac und|Ci]
+14.7 +7.7 63 +13  1023  -0.3  745  283           
12 23.10.21 250 (З) 20000 м    9/9 600 м 
[Sc]
+15.3 +7 58 +14  1023  0.1  745  283           
15 23.10.21 200 (Ю) н/о    3/0 средняя 
[Ac lent]
+10.7 +5 68 +10  1023.6  0.1  745  288    +16.8       
18 23.10.21 180 (Ю) н/о    ясно 
+7.7 +4 77 +6  1024.1  0.2  745  291    +16.8       
21 23.10.21 150 (ЮВ) н/о    ясно 
+4.3 +1.5 82 +5  1024.6  745  295           
00 24.10.21 170 (Ю) н/о    ясно 
+3 +0.9 86 +1  1023.7  -1  744  297           
03 24.10.21 170 (Ю) 20000 м    ясно 
+2.1 -1.3 78 -1  1023.1  -0.7  744  298           
06 24.10.21 200 (Ю) 20000 м    ясно 
+8.8 -1.6 48 +7  1022  -0.3  744  290  +1.7         
09 24.10.21 210 (ЮЗ) 20000 м    ясно 
+15 -2.3 30 +14  1019.8  -1.5  743  284           
12 24.10.21 220 (ЮЗ) 20000 м    4/0 верхняя 
[Ci]
+16.1 -4.3 24 +15  1018.4  -1.3  742  283           
15 24.10.21 190 (Ю) н/о    3/0 верхняя 
[Ci fib]
+9.6 -5.3 34 +9  1019  742  289    +17.2       
18 24.10.21 160 (Ю) н/о    3/0 верхняя 
[Ci fib]
+5.7 -5.7 44 +5  1018.6  -0.8  741  293    +17.2       
21 24.10.21 190 (Ю) н/о    3/0 верхняя 
[Ci fib]
+6.1 -2.4 54 +5  1017.6  -1  740  292           
00 25.10.21 170 (Ю) н/о    6/0 верхняя 
[Ci]
+3.5 -2.4 65 +3  1016.8  -1  739  294           
03 25.10.21 170 (Ю) 20000 м    9/0 верхняя 
[Ci]
+4.6 -2 62 +3  1015.5  -1.2  739  293           
06 25.10.21 190 (Ю) 20000 м    10/10 600 м 
[Sc]
+11.7 +2 51 +11  1014.3  -0.3  738  285  +2.7         
09 25.10.21 210 (ЮЗ) 20000 м    10/10 600 м 
[Sc]
+13.9 -0.5 37 +14  1012.7  -1.4  737  283           
Время (UTC), дата Ветер
(°,м/с) 
Видим.   Явления Облачность Т
(°С)
Тd
(°С)
f(%) Тe
(°С)
Pmin
(гПа)
dP
(гПа)
Po
(мм)
O2
(г/м3)
Тmin Tmax R s Состояние
почвы

Для получения пояснительной информации подведите курсор к названию столбца.

ПОГОДА в Эмбе - архив

Всё, что Вы хотите узнать о погоде в Эмбе - удобно и подробно!

Выберите нужную дату (начиная с 1 января 2019* года) и нажмите кнопку "Найти".
Будут отображены архивные сводки погоды по пункту Эмба, начиная с указанной даты.


Отображать данные в формате CSV (для использования в таблицах Excel)


Внимание! Наш архив погоды предназначен исключительно для личного некоммерческого использования в познавательных целях. Если Вам необходимы официальные справки о состоянии погоды (для производственных, юридических, коммерческих и т.п. целей), обращайтесь в органы Росгидромета.

*Примечание: данная дата относится к архиву по метеостанциям СССР (Россия, СНГ, Балтия).
Архив по метеостанциям Зарубежной Европы и Азии (кроме Китая) хранится 10 дней, по другим регионам земного шара (Китай, Африка, Америка, Австралия, Океания) - 1 день.

Эмба - район местоположения метеостанции


Название, широта, долгота, высота метеостанции:
Эмба 48.8°ш. 58.3°д. 230 м над ур. моря [Казахстан]

Дополнительная информация

В oтличие oт бoльшинства пoгoдных сайтoв мы публикуем пoдрoбную метеoинфoрмацию в детальнoм прoфессиoнальнoм фoрмате.

Характеристики температуры и влажнoсти вoздуха измеряются на высoте 2 м в тени вдали oт зданий и деревьев.
Скoрoсть ветра измеряется на высoте 10 м (на урoвне рoста челoвека скoрoсть ветра ниже в 1.5-2 раза). Если метеoстанция нахoдится в гoрoде или в лесу, тo скoрoсть ветра занижена на 2-4 м/с пo сравнению с oткрытым местoм. Скoрoсть ветра над акватoриями крупных рек и oзёр, а также на вершинах хoлмoв на 2-5 м/с выше, чем в oбычных услoвиях.
Атмoсфернoе давление в разных тoчках местнoсти мoжет значительнo oтличаться oт давления на метеoстанции, в зависимoсти oт услoвий рельефа (при пoдъёме на 10 м давление пoнижается примернo на 1 мм рт.ст.).